Year,Month,Day,Hour,Minute,Value (Times are PST for temperature in C)
2017,09,24,00,00,14.80
2017,09,24,00,01,14.80
2017,09,24,00,02,14.80
2017,09,24,00,03,14.80
2017,09,24,00,04,14.80
2017,09,24,00,05,14.80
2017,09,24,00,06,14.80
2017,09,24,00,07,14.80
2017,09,24,00,08,14.80
2017,09,24,00,09,14.80
2017,09,24,00,10,14.80
2017,09,24,00,11,14.80
2017,09,24,00,12,14.80
2017,09,24,00,13,14.80
2017,09,24,00,14,14.80
2017,09,24,00,15,14.80
2017,09,24,00,16,14.80
2017,09,24,00,17,14.80
2017,09,24,00,18,14.80
2017,09,24,00,19,14.80
2017,09,24,00,20,14.80
2017,09,24,00,21,14.80
2017,09,24,00,22,14.80
2017,09,24,00,23,14.80
2017,09,24,00,24,14.80
2017,09,24,00,25,14.80
2017,09,24,00,26,14.80
2017,09,24,00,27,14.80
2017,09,24,00,28,14.80
2017,09,24,00,29,14.70
2017,09,24,00,30,14.70
2017,09,24,00,31,14.70
2017,09,24,00,32,14.70
2017,09,24,00,33,14.70
2017,09,24,00,34,14.70
2017,09,24,00,35,14.70
2017,09,24,00,36,14.70
2017,09,24,00,37,14.70
2017,09,24,00,38,14.70
2017,09,24,00,39,14.70
2017,09,24,00,40,14.70
2017,09,24,00,41,14.70
2017,09,24,00,42,14.70
2017,09,24,00,43,14.70
2017,09,24,00,44,14.70
2017,09,24,00,45,14.70
2017,09,24,00,46,14.70
2017,09,24,00,47,14.70
2017,09,24,00,48,14.60
2017,09,24,00,49,14.70
2017,09,24,00,50,14.60
2017,09,24,00,51,14.60
2017,09,24,00,52,14.60
2017,09,24,00,53,14.60
2017,09,24,00,54,14.60
2017,09,24,00,55,14.60
2017,09,24,00,56,14.60
2017,09,24,00,57,14.60
2017,09,24,00,58,14.60
2017,09,24,00,59,14.60
2017,09,24,01,00,14.60
2017,09,24,01,01,14.60
2017,09,24,01,02,14.60
2017,09,24,01,03,14.60
2017,09,24,01,04,14.60
2017,09,24,01,05,14.60
2017,09,24,01,06,14.60
2017,09,24,01,07,14.60
2017,09,24,01,08,14.60
2017,09,24,01,09,14.60
2017,09,24,01,10,14.60
2017,09,24,01,11,14.60
2017,09,24,01,12,14.60
2017,09,24,01,13,14.60
2017,09,24,01,14,14.60
2017,09,24,01,15,14.60
2017,09,24,01,16,14.60
2017,09,24,01,17,14.60
2017,09,24,01,18,14.60
2017,09,24,01,19,14.60
2017,09,24,01,20,14.60
2017,09,24,01,21,14.60
2017,09,24,01,22,14.60
2017,09,24,01,23,14.60
2017,09,24,01,24,14.60
2017,09,24,01,25,14.60
2017,09,24,01,26,14.60
2017,09,24,01,27,14.60
2017,09,24,01,28,14.60
2017,09,24,01,29,14.60
2017,09,24,01,30,14.60
2017,09,24,01,31,14.60
2017,09,24,01,32,14.60
2017,09,24,01,33,14.60
2017,09,24,01,34,14.60
2017,09,24,01,35,14.60
2017,09,24,01,36,14.60
2017,09,24,01,37,14.60
2017,09,24,01,38,14.60
2017,09,24,01,39,14.60
2017,09,24,01,40,14.60
2017,09,24,01,41,14.50
2017,09,24,01,42,14.50
2017,09,24,01,43,14.50
2017,09,24,01,44,14.50
2017,09,24,01,45,14.50
2017,09,24,01,46,14.50
2017,09,24,01,47,14.50
2017,09,24,01,48,14.50
2017,09,24,01,49,14.50
2017,09,24,01,50,14.40
2017,09,24,01,51,14.40
2017,09,24,01,52,14.40
2017,09,24,01,53,14.40
2017,09,24,01,54,14.40
2017,09,24,01,55,14.40
2017,09,24,01,56,14.40
2017,09,24,01,57,14.40
2017,09,24,01,58,14.40
2017,09,24,01,59,14.40
2017,09,24,02,00,14.40
2017,09,24,02,01,14.40
2017,09,24,02,02,14.50
2017,09,24,02,03,14.50
2017,09,24,02,04,14.50
2017,09,24,02,05,14.50
2017,09,24,02,06,14.50
2017,09,24,02,07,14.50
2017,09,24,02,08,14.50
2017,09,24,02,09,14.50
2017,09,24,02,10,14.50
2017,09,24,02,11,14.50
2017,09,24,02,12,14.50
2017,09,24,02,13,14.40
2017,09,24,02,14,14.40
2017,09,24,02,15,14.40
2017,09,24,02,16,14.40
2017,09,24,02,17,14.40
2017,09,24,02,18,14.40
2017,09,24,02,19,14.40
2017,09,24,02,20,14.40
2017,09,24,02,21,14.40
2017,09,24,02,22,14.40
2017,09,24,02,23,14.40
2017,09,24,02,24,14.40
2017,09,24,02,25,14.40
2017,09,24,02,26,14.40
2017,09,24,02,27,14.40
2017,09,24,02,28,14.40
2017,09,24,02,29,14.40
2017,09,24,02,30,14.40
2017,09,24,02,31,14.40
2017,09,24,02,32,14.40
2017,09,24,02,33,14.40
2017,09,24,02,34,14.40
2017,09,24,02,35,14.40
2017,09,24,02,36,14.40
2017,09,24,02,37,14.30
2017,09,24,02,38,14.30
2017,09,24,02,39,14.30
2017,09,24,02,40,14.30
2017,09,24,02,41,14.30
2017,09,24,02,42,14.30
2017,09,24,02,43,14.30
2017,09,24,02,44,14.30
2017,09,24,02,45,14.30
2017,09,24,02,46,14.30
2017,09,24,02,47,14.30
2017,09,24,02,48,14.30
2017,09,24,02,49,14.30
2017,09,24,02,50,14.20
2017,09,24,02,51,14.20
2017,09,24,02,52,14.30
2017,09,24,02,53,14.30
2017,09,24,02,54,14.30
2017,09,24,02,55,14.30
2017,09,24,02,56,14.30
2017,09,24,02,57,14.30
2017,09,24,02,58,14.30
2017,09,24,02,59,14.30
2017,09,24,03,00,14.30
2017,09,24,03,01,14.30
2017,09,24,03,02,14.30
2017,09,24,03,03,14.30
2017,09,24,03,04,14.30
2017,09,24,03,05,14.30
2017,09,24,03,06,14.30
2017,09,24,03,07,14.30
2017,09,24,03,08,14.30
2017,09,24,03,09,14.20
2017,09,24,03,10,14.20
2017,09,24,03,11,14.20
2017,09,24,03,12,14.20
2017,09,24,03,13,14.20
2017,09,24,03,14,14.20
2017,09,24,03,15,14.20
2017,09,24,03,16,14.20
2017,09,24,03,17,14.20
2017,09,24,03,18,14.20
2017,09,24,03,19,14.20
2017,09,24,03,20,14.20
2017,09,24,03,21,14.20
2017,09,24,03,22,14.20
2017,09,24,03,23,14.20
2017,09,24,03,24,14.20
2017,09,24,03,25,14.20
2017,09,24,03,26,14.20
2017,09,24,03,27,14.20
2017,09,24,03,28,14.20
2017,09,24,03,29,14.20
2017,09,24,03,30,14.20
2017,09,24,03,31,14.20
2017,09,24,03,32,14.20
2017,09,24,03,33,14.20
2017,09,24,03,34,14.20
2017,09,24,03,35,14.20
2017,09,24,03,36,14.20
2017,09,24,03,37,14.20
2017,09,24,03,38,14.20
2017,09,24,03,39,14.20
2017,09,24,03,40,14.30
2017,09,24,03,41,14.30
2017,09,24,03,42,14.30
2017,09,24,03,43,14.30
2017,09,24,03,44,14.30
2017,09,24,03,45,14.30
2017,09,24,03,46,14.30
2017,09,24,03,47,14.40
2017,09,24,03,48,14.40
2017,09,24,03,49,14.40
2017,09,24,03,50,14.40
2017,09,24,03,51,14.40
2017,09,24,03,52,14.50
2017,09,24,03,53,14.50
2017,09,24,03,54,14.50
2017,09,24,03,55,14.60
2017,09,24,03,56,14.60
2017,09,24,03,57,14.60
2017,09,24,03,58,14.60
2017,09,24,03,59,14.60
2017,09,24,04,00,14.60
2017,09,24,04,01,14.60
2017,09,24,04,02,14.60
2017,09,24,04,03,14.60
2017,09,24,04,04,14.60
2017,09,24,04,05,14.60
2017,09,24,04,06,14.60
2017,09,24,04,07,14.60
2017,09,24,04,08,14.60
2017,09,24,04,09,14.60
2017,09,24,04,10,14.60
2017,09,24,04,11,14.60
2017,09,24,04,12,14.60
2017,09,24,04,13,14.60
2017,09,24,04,14,14.60
2017,09,24,04,15,14.60
2017,09,24,04,16,14.60
2017,09,24,04,17,14.60
2017,09,24,04,18,14.60
2017,09,24,04,19,14.50
2017,09,24,04,20,14.50
2017,09,24,04,21,14.50
2017,09,24,04,22,14.50
2017,09,24,04,23,14.50
2017,09,24,04,24,14.50
2017,09,24,04,25,14.40
2017,09,24,04,26,14.40
2017,09,24,04,27,14.40
2017,09,24,04,28,14.40
2017,09,24,04,29,14.40
2017,09,24,04,30,14.40
2017,09,24,04,31,14.30
2017,09,24,04,32,14.30
2017,09,24,04,33,14.30
2017,09,24,04,34,14.30
2017,09,24,04,35,14.30
2017,09,24,04,36,14.30
2017,09,24,04,37,14.30
2017,09,24,04,38,14.30
2017,09,24,04,39,14.30
2017,09,24,04,40,14.30
2017,09,24,04,41,14.30
2017,09,24,04,42,14.30
2017,09,24,04,43,14.30
2017,09,24,04,44,14.30
2017,09,24,04,45,14.30
2017,09,24,04,46,14.30
2017,09,24,04,47,14.30
2017,09,24,04,48,14.30
2017,09,24,04,49,14.30
2017,09,24,04,50,14.30
2017,09,24,04,51,14.30
2017,09,24,04,52,14.20
2017,09,24,04,53,14.20
2017,09,24,04,54,14.20
2017,09,24,04,55,14.20
2017,09,24,04,56,14.20
2017,09,24,04,57,14.20
2017,09,24,04,58,14.20
2017,09,24,04,59,14.20
2017,09,24,05,00,14.20
2017,09,24,05,01,14.20
2017,09,24,05,02,14.20
2017,09,24,05,03,14.20
2017,09,24,05,04,14.30
2017,09,24,05,05,14.30
2017,09,24,05,06,14.30
2017,09,24,05,07,14.30
2017,09,24,05,08,14.30
2017,09,24,05,09,14.30
2017,09,24,05,10,14.30
2017,09,24,05,11,14.30
2017,09,24,05,12,14.30
2017,09,24,05,13,14.30
2017,09,24,05,14,14.40
2017,09,24,05,15,14.40
2017,09,24,05,16,14.40
2017,09,24,05,17,14.40
2017,09,24,05,18,14.40
2017,09,24,05,19,14.40
2017,09,24,05,20,14.40
2017,09,24,05,21,14.30
2017,09,24,05,22,14.30
2017,09,24,05,23,14.30
2017,09,24,05,24,14.30
2017,09,24,05,25,14.30
2017,09,24,05,26,14.30
2017,09,24,05,27,14.30
2017,09,24,05,28,14.30
2017,09,24,05,29,14.30
2017,09,24,05,30,14.30
2017,09,24,05,31,14.30
2017,09,24,05,32,14.30
2017,09,24,05,33,14.20
2017,09,24,05,34,14.20
2017,09,24,05,35,14.20
2017,09,24,05,36,14.20
2017,09,24,05,37,14.20
2017,09,24,05,38,14.10
2017,09,24,05,39,14.10
2017,09,24,05,40,14.10
2017,09,24,05,41,14.10
2017,09,24,05,42,14.00
2017,09,24,05,43,14.00
2017,09,24,05,44,14.00
2017,09,24,05,45,13.90
2017,09,24,05,46,13.90
2017,09,24,05,47,13.80
2017,09,24,05,48,13.80
2017,09,24,05,49,13.80
2017,09,24,05,50,13.80
2017,09,24,05,51,13.70
2017,09,24,05,52,13.70
2017,09,24,05,53,13.70
2017,09,24,05,54,13.70
2017,09,24,05,55,13.70
2017,09,24,05,56,13.60
2017,09,24,05,57,13.60
2017,09,24,05,58,13.60
2017,09,24,05,59,13.60
2017,09,24,06,00,13.60
2017,09,24,06,01,13.60
2017,09,24,06,02,13.60
2017,09,24,06,03,13.60
2017,09,24,06,04,13.60
2017,09,24,06,05,13.60
2017,09,24,06,06,13.60
2017,09,24,06,07,13.50
2017,09,24,06,08,13.50
2017,09,24,06,09,13.50
2017,09,24,06,10,13.50
2017,09,24,06,11,13.50
2017,09,24,06,12,13.50
2017,09,24,06,13,13.50
2017,09,24,06,14,13.40
2017,09,24,06,15,13.40
2017,09,24,06,16,13.40
2017,09,24,06,17,13.40
2017,09,24,06,18,13.40
2017,09,24,06,19,13.40
2017,09,24,06,20,13.40
2017,09,24,06,21,13.40
2017,09,24,06,22,13.40
2017,09,24,06,23,13.40
2017,09,24,06,24,13.40
2017,09,24,06,25,13.30
2017,09,24,06,26,13.30
2017,09,24,06,27,13.30
2017,09,24,06,28,13.30
2017,09,24,06,29,13.30
2017,09,24,06,30,13.30
2017,09,24,06,31,13.30
2017,09,24,06,32,13.30
2017,09,24,06,33,13.30
2017,09,24,06,34,13.30
2017,09,24,06,35,13.30
2017,09,24,06,36,13.20
2017,09,24,06,37,13.30
2017,09,24,06,38,13.20
2017,09,24,06,39,13.20
2017,09,24,06,40,13.20
2017,09,24,06,41,13.20
2017,09,24,06,42,13.20
2017,09,24,06,43,13.20
2017,09,24,06,44,13.20
2017,09,24,06,45,13.10
2017,09,24,06,46,13.10
2017,09,24,06,47,13.10
2017,09,24,06,48,13.10
2017,09,24,06,49,13.10
2017,09,24,06,50,13.10
2017,09,24,06,51,13.10
2017,09,24,06,52,13.10
2017,09,24,06,53,13.10
2017,09,24,06,54,13.10
2017,09,24,06,55,13.10
2017,09,24,06,56,13.10
2017,09,24,06,57,13.10
2017,09,24,06,58,13.10
2017,09,24,06,59,13.10
2017,09,24,07,00,13.10
2017,09,24,07,01,13.10
2017,09,24,07,02,13.10
2017,09,24,07,03,13.10
2017,09,24,07,04,13.10
2017,09,24,07,05,13.10
2017,09,24,07,06,13.10
2017,09,24,07,07,13.10
2017,09,24,07,08,13.10
2017,09,24,07,09,13.10
2017,09,24,07,10,13.00
2017,09,24,07,11,13.00
2017,09,24,07,12,13.00
2017,09,24,07,13,13.00
2017,09,24,07,14,13.00
2017,09,24,07,15,13.00
2017,09,24,07,16,13.00
2017,09,24,07,17,13.00
2017,09,24,07,18,13.00
2017,09,24,07,19,13.00
2017,09,24,07,20,13.00
2017,09,24,07,21,13.00
2017,09,24,07,22,13.00
2017,09,24,07,23,13.00
2017,09,24,07,24,13.00
2017,09,24,07,25,13.00
2017,09,24,07,26,12.90
2017,09,24,07,27,12.90
2017,09,24,07,28,13.00
2017,09,24,07,29,13.00
2017,09,24,07,30,13.00
2017,09,24,07,31,13.00
2017,09,24,07,32,13.00
2017,09,24,07,33,13.00
2017,09,24,07,34,13.00
2017,09,24,07,35,13.00
2017,09,24,07,36,13.10
2017,09,24,07,37,13.10
2017,09,24,07,38,13.10
2017,09,24,07,39,13.10
2017,09,24,07,40,13.10
2017,09,24,07,41,13.10
2017,09,24,07,42,13.10
2017,09,24,07,43,13.10
2017,09,24,07,44,13.10
2017,09,24,07,45,13.10
2017,09,24,07,46,13.10
2017,09,24,07,47,13.10
2017,09,24,07,48,13.10
2017,09,24,07,49,13.10
2017,09,24,07,50,13.10
2017,09,24,07,51,13.10
2017,09,24,07,52,13.10
2017,09,24,07,53,13.10
2017,09,24,07,54,13.10
2017,09,24,07,55,13.10
2017,09,24,07,56,13.10
2017,09,24,07,57,13.10
2017,09,24,07,58,13.10
2017,09,24,07,59,13.10
2017,09,24,08,00,13.00
2017,09,24,08,01,13.00
2017,09,24,08,02,13.00
2017,09,24,08,03,13.00
2017,09,24,08,04,13.00
2017,09,24,08,05,13.00
2017,09,24,08,06,13.00
2017,09,24,08,07,13.00
2017,09,24,08,08,13.00
2017,09,24,08,09,13.00
2017,09,24,08,10,13.00
2017,09,24,08,11,13.00
2017,09,24,08,12,13.00
2017,09,24,08,13,13.00
2017,09,24,08,14,13.00
2017,09,24,08,15,13.00
2017,09,24,08,16,13.00
2017,09,24,08,17,12.90
2017,09,24,08,18,12.90
2017,09,24,08,19,13.00
2017,09,24,08,20,12.90
2017,09,24,08,21,13.00
2017,09,24,08,22,13.00
2017,09,24,08,23,12.90
2017,09,24,08,24,12.90
2017,09,24,08,25,13.00
2017,09,24,08,26,12.90
2017,09,24,08,27,12.90
2017,09,24,08,28,12.90
2017,09,24,08,29,12.90
2017,09,24,08,30,13.00
2017,09,24,08,31,13.00
2017,09,24,08,32,13.00
2017,09,24,08,33,13.10
2017,09,24,08,34,13.10
2017,09,24,08,35,13.20
2017,09,24,08,36,13.20
2017,09,24,08,37,13.20
2017,09,24,08,38,13.20
2017,09,24,08,39,13.30
2017,09,24,08,40,13.40
2017,09,24,08,41,13.50
2017,09,24,08,42,13.50
2017,09,24,08,43,13.60
2017,09,24,08,44,13.60
2017,09,24,08,45,13.70
2017,09,24,08,46,13.70
2017,09,24,08,47,13.80
2017,09,24,08,48,13.80
2017,09,24,08,49,13.80
2017,09,24,08,50,13.90
2017,09,24,08,51,13.90
2017,09,24,08,52,13.90
2017,09,24,08,53,13.90
2017,09,24,08,54,13.90
2017,09,24,08,55,13.90
2017,09,24,08,56,14.00
2017,09,24,08,57,14.00
2017,09,24,08,58,14.00
2017,09,24,08,59,14.00
2017,09,24,09,00,14.00
2017,09,24,09,01,14.00
2017,09,24,09,02,14.10
2017,09,24,09,03,14.10
2017,09,24,09,04,14.10
2017,09,24,09,05,14.10
2017,09,24,09,06,14.10
2017,09,24,09,07,14.20
2017,09,24,09,08,14.20
2017,09,24,09,09,14.30
2017,09,24,09,10,14.30
2017,09,24,09,11,14.40
2017,09,24,09,12,14.40
2017,09,24,09,13,14.50
2017,09,24,09,14,14.60
2017,09,24,09,15,14.60
2017,09,24,09,16,14.70
2017,09,24,09,17,14.70
2017,09,24,09,18,14.80
2017,09,24,09,19,14.80
2017,09,24,09,20,14.90
2017,09,24,09,21,15.00
2017,09,24,09,22,15.10
2017,09,24,09,23,15.10
2017,09,24,09,24,15.20
2017,09,24,09,25,15.30
2017,09,24,09,26,15.30
2017,09,24,09,27,15.40
2017,09,24,09,28,15.50
2017,09,24,09,29,15.50
2017,09,24,09,30,15.60
2017,09,24,09,31,15.70
2017,09,24,09,32,15.70
2017,09,24,09,33,15.70
2017,09,24,09,34,15.70
2017,09,24,09,35,15.70
2017,09,24,09,36,15.80
2017,09,24,09,37,15.80
2017,09,24,09,38,15.90
2017,09,24,09,39,15.90
2017,09,24,09,40,15.90
2017,09,24,09,41,15.90
2017,09,24,09,42,15.90
2017,09,24,09,43,16.00
2017,09,24,09,44,16.00
2017,09,24,09,45,16.00
2017,09,24,09,46,16.10
2017,09,24,09,47,16.10
2017,09,24,09,48,16.20
2017,09,24,09,49,16.20
2017,09,24,09,50,16.30
2017,09,24,09,51,16.40
2017,09,24,09,52,16.40
2017,09,24,09,53,16.50
2017,09,24,09,54,16.50
2017,09,24,09,55,16.50
2017,09,24,09,56,16.50
2017,09,24,09,57,16.40
2017,09,24,09,58,16.40
2017,09,24,09,59,16.40
2017,09,24,10,00,16.30
2017,09,24,10,01,16.30
2017,09,24,10,02,16.30
2017,09,24,10,03,16.30
2017,09,24,10,04,16.40
2017,09,24,10,05,16.40
2017,09,24,10,06,16.50
2017,09,24,10,07,16.60
2017,09,24,10,08,16.70
2017,09,24,10,09,16.80
2017,09,24,10,10,16.90
2017,09,24,10,11,16.90
2017,09,24,10,12,17.00
2017,09,24,10,13,17.10
2017,09,24,10,14,17.10
2017,09,24,10,15,17.10
2017,09,24,10,16,17.00
2017,09,24,10,17,17.00
2017,09,24,10,18,16.90
2017,09,24,10,19,16.90
2017,09,24,10,20,16.90
2017,09,24,10,21,17.00
2017,09,24,10,22,17.00
2017,09,24,10,23,17.10
2017,09,24,10,24,17.10
2017,09,24,10,25,17.10
2017,09,24,10,26,17.10
2017,09,24,10,27,17.10
2017,09,24,10,28,17.10
2017,09,24,10,29,17.00
2017,09,24,10,30,17.00
2017,09,24,10,31,17.00
2017,09,24,10,32,17.00
2017,09,24,10,33,17.00
2017,09,24,10,34,17.00
2017,09,24,10,35,17.00
2017,09,24,10,36,17.00
2017,09,24,10,37,17.00
2017,09,24,10,38,17.00
2017,09,24,10,39,17.10
2017,09,24,10,40,17.10
2017,09,24,10,41,17.10
2017,09,24,10,42,17.10
2017,09,24,10,43,17.10
2017,09,24,10,44,17.10
2017,09,24,10,45,17.10
2017,09,24,10,46,17.10
2017,09,24,10,47,17.10
2017,09,24,10,48,17.10
2017,09,24,10,49,17.10
2017,09,24,10,50,17.00
2017,09,24,10,51,17.00
2017,09,24,10,52,17.00
2017,09,24,10,53,16.90
2017,09,24,10,54,16.90
2017,09,24,10,55,16.90
2017,09,24,10,56,16.90
2017,09,24,10,57,16.90
2017,09,24,10,58,16.90
2017,09,24,10,59,16.90
2017,09,24,11,00,16.90
2017,09,24,11,01,17.00
2017,09,24,11,02,17.00
2017,09,24,11,03,17.00
2017,09,24,11,04,17.00
2017,09,24,11,05,17.00
2017,09,24,11,06,17.00
2017,09,24,11,07,17.00
2017,09,24,11,08,17.00
2017,09,24,11,09,17.00
2017,09,24,11,10,17.00
2017,09,24,11,11,17.00
2017,09,24,11,12,16.90
2017,09,24,11,13,16.80
2017,09,24,11,14,16.80
2017,09,24,11,15,16.70
2017,09,24,11,16,16.70
2017,09,24,11,17,16.70
2017,09,24,11,18,16.70
2017,09,24,11,19,16.70
2017,09,24,11,20,16.70
2017,09,24,11,21,16.80
2017,09,24,11,22,16.80
2017,09,24,11,23,16.80
2017,09,24,11,24,16.80
2017,09,24,11,25,16.80
2017,09,24,11,26,16.80
2017,09,24,11,27,16.80
2017,09,24,11,28,16.80
2017,09,24,11,29,16.80
2017,09,24,11,30,16.80
2017,09,24,11,31,16.70
2017,09,24,11,32,16.70
2017,09,24,11,33,16.80
2017,09,24,11,34,16.80
2017,09,24,11,35,16.80
2017,09,24,11,36,16.90
2017,09,24,11,37,16.90
2017,09,24,11,38,16.90
2017,09,24,11,39,16.90
2017,09,24,11,40,16.80
2017,09,24,11,41,16.80
2017,09,24,11,42,16.80
2017,09,24,11,43,16.80
2017,09,24,11,44,16.70
2017,09,24,11,45,16.70
2017,09,24,11,46,16.70
2017,09,24,11,47,16.70
2017,09,24,11,48,16.80
2017,09,24,11,49,16.80
2017,09,24,11,50,16.80
2017,09,24,11,51,16.80
2017,09,24,11,52,16.80
2017,09,24,11,53,16.80
2017,09,24,11,54,16.90
2017,09,24,11,55,16.90
2017,09,24,11,56,16.80
2017,09,24,11,57,16.80
2017,09,24,11,58,16.80
2017,09,24,11,59,16.80
2017,09,24,12,00,16.80
2017,09,24,12,01,16.80
2017,09,24,12,02,16.80
2017,09,24,12,03,16.80
2017,09,24,12,04,16.80
2017,09,24,12,05,16.80
2017,09,24,12,06,16.80
2017,09,24,12,07,16.90
2017,09,24,12,08,16.90
2017,09,24,12,09,16.90
2017,09,24,12,10,16.90
2017,09,24,12,11,16.80
2017,09,24,12,12,16.80
2017,09,24,12,13,16.80
2017,09,24,12,14,16.70
2017,09,24,12,15,16.70
2017,09,24,12,16,16.70
2017,09,24,12,17,16.60
2017,09,24,12,18,16.60
2017,09,24,12,19,16.60
2017,09,24,12,20,16.70
2017,09,24,12,21,16.80
2017,09,24,12,22,16.90
2017,09,24,12,23,17.00
2017,09,24,12,24,17.10
2017,09,24,12,25,17.20
2017,09,24,12,26,17.20
2017,09,24,12,27,17.30
2017,09,24,12,28,17.40
2017,09,24,12,29,17.50
2017,09,24,12,30,17.60
2017,09,24,12,31,17.80
2017,09,24,12,32,17.80
2017,09,24,12,33,17.80
2017,09,24,12,34,17.70
2017,09,24,12,35,17.70
2017,09,24,12,36,17.70
2017,09,24,12,37,17.80
2017,09,24,12,38,17.80
2017,09,24,12,39,17.80
2017,09,24,12,40,17.80
2017,09,24,12,41,17.70
2017,09,24,12,42,17.70
2017,09,24,12,43,17.70
2017,09,24,12,44,17.60
2017,09,24,12,45,17.60
2017,09,24,12,46,17.60
2017,09,24,12,47,17.60
2017,09,24,12,48,17.50
2017,09,24,12,49,17.50
2017,09,24,12,50,17.40
2017,09,24,12,51,17.40
2017,09,24,12,52,17.40
2017,09,24,12,53,17.30
2017,09,24,12,54,17.30
2017,09,24,12,55,17.20
2017,09,24,12,56,17.20
2017,09,24,12,57,17.20
2017,09,24,12,58,17.20
2017,09,24,12,59,17.20
2017,09,24,13,00,17.20
2017,09,24,13,01,17.10
2017,09,24,13,02,17.10
2017,09,24,13,03,17.10
2017,09,24,13,04,17.00
2017,09,24,13,05,17.00
2017,09,24,13,06,16.90
2017,09,24,13,07,16.90
2017,09,24,13,08,16.90
2017,09,24,13,09,16.90
2017,09,24,13,10,16.90
2017,09,24,13,11,16.90
2017,09,24,13,12,16.90
2017,09,24,13,13,16.90
2017,09,24,13,14,16.90
2017,09,24,13,15,16.90
2017,09,24,13,16,16.80
2017,09,24,13,17,16.80
2017,09,24,13,18,16.80
2017,09,24,13,19,16.80
2017,09,24,13,20,16.80
2017,09,24,13,21,16.70
2017,09,24,13,22,16.70
2017,09,24,13,23,16.70
2017,09,24,13,24,16.70
2017,09,24,13,25,16.70
2017,09,24,13,26,16.70
2017,09,24,13,27,16.70
2017,09,24,13,28,16.70
2017,09,24,13,29,16.70
2017,09,24,13,30,16.70
2017,09,24,13,31,16.70
2017,09,24,13,32,16.60
2017,09,24,13,33,16.60
2017,09,24,13,34,16.70
2017,09,24,13,35,16.70
2017,09,24,13,36,16.70
2017,09,24,13,37,16.70
2017,09,24,13,38,16.70
2017,09,24,13,39,16.70
2017,09,24,13,40,16.80
2017,09,24,13,41,16.80
2017,09,24,13,42,16.80
2017,09,24,13,43,16.80
2017,09,24,13,44,16.80
2017,09,24,13,45,16.80
2017,09,24,13,46,16.80
2017,09,24,13,47,16.90
2017,09,24,13,48,16.90
2017,09,24,13,49,17.00
2017,09,24,13,50,17.00
2017,09,24,13,51,17.10
2017,09,24,13,52,17.10
2017,09,24,13,53,17.10
2017,09,24,13,54,17.10
2017,09,24,13,55,17.20
2017,09,24,13,56,17.20
2017,09,24,13,57,17.20
2017,09,24,13,58,17.20
2017,09,24,13,59,17.20
2017,09,24,14,00,17.20
2017,09,24,14,01,17.20
2017,09,24,14,02,17.20
2017,09,24,14,03,17.20
2017,09,24,14,04,17.20
2017,09,24,14,05,17.20
2017,09,24,14,06,17.10
2017,09,24,14,07,17.10
2017,09,24,14,08,17.10
2017,09,24,14,09,17.10
2017,09,24,14,10,17.10
2017,09,24,14,11,17.10
2017,09,24,14,12,17.10
2017,09,24,14,13,17.10
2017,09,24,14,14,17.10
2017,09,24,14,15,17.10
2017,09,24,14,16,17.10
2017,09,24,14,17,17.10
2017,09,24,14,18,17.10
2017,09,24,14,19,17.10
2017,09,24,14,20,17.10
2017,09,24,14,21,17.20
2017,09,24,14,22,17.20
2017,09,24,14,23,17.20
2017,09,24,14,24,17.20
2017,09,24,14,25,17.20
2017,09,24,14,26,17.20
2017,09,24,14,27,17.30
2017,09,24,14,28,17.30
2017,09,24,14,29,17.40
2017,09,24,14,30,17.40
2017,09,24,14,31,17.40
2017,09,24,14,32,17.40
2017,09,24,14,33,17.40
2017,09,24,14,34,17.40
2017,09,24,14,35,17.40
2017,09,24,14,36,17.40
2017,09,24,14,37,17.40
2017,09,24,14,38,17.30
2017,09,24,14,39,17.30
2017,09,24,14,40,17.30
2017,09,24,14,41,17.30
2017,09,24,14,42,17.30
2017,09,24,14,43,17.30
2017,09,24,14,44,17.30
2017,09,24,14,45,17.30
2017,09,24,14,46,17.30
2017,09,24,14,47,17.30
2017,09,24,14,48,17.40
2017,09,24,14,49,17.40
2017,09,24,14,50,17.40
2017,09,24,14,51,17.40
2017,09,24,14,52,17.40
2017,09,24,14,53,17.40
2017,09,24,14,54,17.40
2017,09,24,14,55,17.40
2017,09,24,14,56,17.40
2017,09,24,14,57,17.40
2017,09,24,14,58,17.40
2017,09,24,14,59,17.40
2017,09,24,15,00,17.50
2017,09,24,15,01,17.50
2017,09,24,15,02,17.50
2017,09,24,15,03,17.60
2017,09,24,15,04,17.60
2017,09,24,15,05,17.60
2017,09,24,15,06,17.60
2017,09,24,15,07,17.70
2017,09,24,15,08,17.70
2017,09,24,15,09,17.70
2017,09,24,15,10,17.70
2017,09,24,15,11,17.80
2017,09,24,15,12,17.80
2017,09,24,15,13,17.90
2017,09,24,15,14,17.90
2017,09,24,15,15,18.00
2017,09,24,15,16,18.00
2017,09,24,15,17,18.00
2017,09,24,15,18,18.10
2017,09,24,15,19,18.10
2017,09,24,15,20,18.10
2017,09,24,15,21,18.10
2017,09,24,15,22,18.10
2017,09,24,15,23,18.10
2017,09,24,15,24,18.10
2017,09,24,15,25,18.10
2017,09,24,15,26,18.00
2017,09,24,15,27,18.00
2017,09,24,15,28,18.00
2017,09,24,15,29,18.00
2017,09,24,15,30,18.00
2017,09,24,15,31,18.10
2017,09,24,15,32,18.10
2017,09,24,15,33,18.10
2017,09,24,15,34,18.00
2017,09,24,15,35,18.00
2017,09,24,15,36,18.00
2017,09,24,15,37,18.00
2017,09,24,15,38,18.00
2017,09,24,15,39,18.00
2017,09,24,15,40,18.00
2017,09,24,15,41,18.00
2017,09,24,15,42,17.90
2017,09,24,15,43,17.90
2017,09,24,15,44,17.90
2017,09,24,15,45,17.90
2017,09,24,15,46,17.80
2017,09,24,15,47,17.80
2017,09,24,15,48,17.80
2017,09,24,15,49,17.80
2017,09,24,15,50,17.80
2017,09,24,15,51,17.80
2017,09,24,15,52,17.80
2017,09,24,15,53,17.80
2017,09,24,15,54,17.80
2017,09,24,15,55,17.80
2017,09,24,15,56,17.80
2017,09,24,15,57,17.80
2017,09,24,15,58,17.90
2017,09,24,15,59,17.90
2017,09,24,16,00,17.90
2017,09,24,16,01,17.90
2017,09,24,16,02,17.90
2017,09,24,16,03,17.90
2017,09,24,16,04,17.90
2017,09,24,16,05,17.90
2017,09,24,16,06,17.90
2017,09,24,16,07,17.90
2017,09,24,16,08,17.90
2017,09,24,16,09,17.90
2017,09,24,16,10,17.90
2017,09,24,16,11,17.90
2017,09,24,16,12,17.90
2017,09,24,16,13,17.80
2017,09,24,16,14,17.80
2017,09,24,16,15,17.80
2017,09,24,16,16,17.80
2017,09,24,16,17,17.80
2017,09,24,16,18,17.70
2017,09,24,16,19,17.70
2017,09,24,16,20,17.70
2017,09,24,16,21,17.70
2017,09,24,16,22,17.70
2017,09,24,16,23,17.70
2017,09,24,16,24,17.70
2017,09,24,16,25,17.70
2017,09,24,16,26,17.70
2017,09,24,16,27,17.70
2017,09,24,16,28,17.70
2017,09,24,16,29,17.70
2017,09,24,16,30,17.70
2017,09,24,16,31,17.70
2017,09,24,16,32,17.60
2017,09,24,16,33,17.60
2017,09,24,16,34,17.50
2017,09,24,16,35,17.50
2017,09,24,16,36,17.50
2017,09,24,16,37,17.50
2017,09,24,16,38,17.40
2017,09,24,16,39,17.40
2017,09,24,16,40,17.40
2017,09,24,16,41,17.40
2017,09,24,16,42,17.40
2017,09,24,16,43,17.40
2017,09,24,16,44,17.40
2017,09,24,16,45,17.40
2017,09,24,16,46,17.40
2017,09,24,16,47,17.30
2017,09,24,16,48,17.30
2017,09,24,16,49,17.30
2017,09,24,16,50,17.30
2017,09,24,16,51,17.30
2017,09,24,16,52,17.30
2017,09,24,16,53,17.30
2017,09,24,16,54,17.30
2017,09,24,16,55,17.20
2017,09,24,16,56,17.20
2017,09,24,16,57,17.20
2017,09,24,16,58,17.20
2017,09,24,16,59,17.20
2017,09,24,17,00,17.20
2017,09,24,17,01,17.20
2017,09,24,17,02,17.20
2017,09,24,17,03,17.20
2017,09,24,17,04,17.20
2017,09,24,17,05,17.20
2017,09,24,17,06,17.20
2017,09,24,17,07,17.10
2017,09,24,17,08,17.10
2017,09,24,17,09,17.10
2017,09,24,17,10,17.10
2017,09,24,17,11,17.10
2017,09,24,17,12,17.10
2017,09,24,17,13,17.10
2017,09,24,17,14,17.10
2017,09,24,17,15,17.10
2017,09,24,17,16,17.10
2017,09,24,17,17,17.10
2017,09,24,17,18,17.10
2017,09,24,17,19,17.10